Flag for U.S.A. Weather past 2 weeks in Thousand Oaks, California, U.S.A.

Now
59 °F

Overcast.


Feels Like: 59 °F
Forecast: 53 / 71 °F
Wind: No wind

Location: Camarillo Airport

Current Time: May 24, 2015 at 10:42:04 PM

Latest Report: May 24, 2015 at 9:55 PM


Visibility: 10 mi

Pressure: 29.99 "Hg

Humidity: 81%

Dew point: 53 °F

Location of Thousand OaksLocation

Historic Weather in Thousand Oaks — Graph

°F

Thousand Oaks temperature yesterday

Maximum temperature yesterday: 70 °F (at 12:55 PM)
Minimum temperature yesterday: 55 °F (at 4:55 AM)
Average temperature yesterday: 62 °F

Past Weeks' High & Low Weather Summary

 TemperatureHumidityPressure
High71 °F (May 10, 2:55 PM)86% (May 12, 4:55 AM)30.11 "Hg (May 12, 4:55 AM)
Low50 °F (May 10, 5:55 AM)42% (May 21, 3:55 PM)29.84 "Hg (May 11, 5:55 PM)
Average61 °F68%29.98 "Hg
* Reported May 9 8:55 PM — May 24 8:55 PM, Thousand Oaks, Weather by CustomWeather, © 2015

Note: Actual official high and low records may vary slightly from our data, if they occured in-between our weather recording intervals... More about our weather records

Advertising

Thousand Oaks weather history for previous 24 hours

 ConditionsComfort  
Time TempWeatherWind HumidityBarometerVisibility
8:55 PM
Sun, May 24
59 °FScattered clouds.5 mph81%29.99 "Hg10 mi
7:55 PM61 °FSunny.7 mph75%29.98 "Hg10 mi
6:55 PM65 °FSunny.10 mph59%29.97 "Hg10 mi
5:55 PM67 °FSunny.10 mph55%29.96 "Hg10 mi
4:55 PM68 °FSunny.9 mph53%29.97 "Hg10 mi
3:55 PM68 °FSunny.7 mph55%29.99 "Hg10 mi
2:55 PM68 °FSunny.12 mph57%30.01 "Hg10 mi
1:55 PM69 °FSunny.14 mph53%30.02 "Hg10 mi
12:55 PM68 °FSunny.13 mph53%30.03 "Hg10 mi
11:55 AM69 °FSunny.7 mph53%30.03 "Hg10 mi
10:55 AM67 °FPassing clouds.8 mph57%30.04 "Hg10 mi
9:55 AM64 °FSunny.5 mph61%30.04 "Hg10 mi
8:55 AM61 °FPartly sunny.No wind70%30.05 "Hg10 mi
7:55 AM60 °FScattered clouds.No wind69%30.05 "Hg10 mi
6:55 AM55 °FPartly sunny.3 mph80%30.04 "Hg9 mi
5:55 AM53 °FPassing clouds.No wind80%30.02 "Hg10 mi
4:55 AM53 °FClear.No wind80%30.01 "Hg10 mi
3:55 AM54 °FClear.No wind80%30.01 "Hg10 mi
2:55 AM56 °FClear.No wind77%30.00 "Hg10 mi
1:55 AM55 °FClear.5 mph77%30.03 "Hg10 mi
12:55 AM58 °FClear.3 mph75%30.02 "Hg10 mi
11:55 PM
Sat, May 23
58 °FClear.5 mph75%30.04 "Hg10 mi
10:55 PM58 °FClear.5 mph75%30.05 "Hg10 mi
Weather by CustomWeather, © 2015

See weather overviewHow to use our weather pages